Terminal Aerodrome Forecast
Issued by NWS

Home | Current Version | Previous Version | Graphics & Text | Print | Product List | Glossary Off
Versions: 1 2 3 4 5 6 7 8 9 10 11 12 13 14 15 16 17 18 19 20 21 22 23 24 25 26 27 28 29 30 31 32 33 34 35 36 37 38 39 40 41 42 43 44 45 46

000
FTUS43 KDDC 050521
TAFGCK
TAF
KGCK 050521Z 0506/0606 19010KT P6SM SKC
     FM050700 19010KT P6SM SKC WS020/22040KT
     FM051300 20012G18KT P6SM SKC
     FM052000 23007KT P6SM SKC=

USA.gov is the U.S. government's official web portal to all federal, state and local government web resources and services.